Home   Weather   Wiluna   Past weeks
Flag for Australia

Past Weather in Wiluna, Western Australia, Australia — Yesterday and Last 2 Weeks

Now
40 °F

Chilly.


Feels Like: 35 °F
Forecast: 67 / 42 °F
Wind: 6 mph from East

Location: Leonora Leinster Aerodrome Aws

Current Time: Jul 16, 2019 at 6:13:07 am

Latest Report: Jul 16, 2019 at 5:00 am


Visibility: N/A

Pressure: 30.37 "Hg (28.48 "Hg at 521m altitude)

Humidity: 83%

Dew Point: 35 °F

Location of WilunaLocation

Past Weather in Wiluna — Graph

°F

Wiluna Temperature Yesterday

Maximum temperature yesterday: 65 °F (at 3:00 pm)
Minimum temperature yesterday: 39 °F (at 6:00 am)
Average temperature yesterday: 52 °F

High & Low Weather Summary for the Past Weeks

 TemperatureHumidityPressure
High79 °F (Jul 4, 2:00 pm)99% (Jul 5, 3:00 am)30.52 "Hg (Jul 5, 3:00 am)
Low37 °F (Jul 1, 5:00 am)18% (Jul 4, 2:00 pm)29.84 "Hg (Jul 4, 9:00 pm)
Average54 °F51%30.23 "Hg
* Reported Jul 1 5:00 am — Jul 16 5:00 am, Wiluna. Weather by CustomWeather, © 2019

Note: Actual official high and low records may vary slightly from our data, if they occured in-between our weather recording intervals... More about our weather records

Advertising

Wiluna Weather History for the Previous 24 Hours

Scroll right to see more
 ConditionsComfort  
Time TempWeatherWind HumidityBarometerVisibility
5:00 am
Tue, Jul 16
40 °FChilly.6 mph83%30.37 "HgN/A
3:00 am41 °FQuite cool.5 mph77%30.37 "HgN/A
2:00 am43 °FQuite cool.6 mph70%30.37 "HgN/A
12:00 am46 °FCool.3 mph63%30.37 "HgN/A
11:00 pm
Mon, Jul 15
49 °FCool.7 mph56%30.37 "HgN/A
9:00 pm51 °FCool.6 mph49%30.37 "HgN/A
8:00 pm54 °FCool.6 mph44%30.37 "HgN/A
6:00 pm59 °FRefreshingly cool.7 mph36%30.34 "HgN/A
5:00 pm62 °FRefreshingly cool.9 mph32%30.32 "HgN/A
3:00 pm65 °FMild.9 mph30%30.32 "HgN/A
2:00 pm64 °FMild.9 mph33%30.33 "HgN/A
12:00 pm60 °FRefreshingly cool.12 mph41%30.40 "HgN/A
11:00 am58 °FRefreshingly cool.15 mph45%30.43 "HgN/A
9:00 am52 °FCool.15 mph62%30.45 "HgN/A
8:00 am44 °FQuite cool.8 mph79%30.45 "HgN/A
6:00 am39 °FChilly.6 mph87%30.42 "HgN/A
Weather by CustomWeather, © 2019

See weather overview

LIVE PARTIAL LUNAR ECLIPSE – Watch the eclipse as it happens